Regional Weather Roundup
Issued by NWS

Home | Current Version | Previous Version | Graphics & Text | Print | Product List | Glossary On
Versions: 1 2 3 4 5 6 7 8 9 10 11 12 13 14 15 16 17 18 19 20 21 22 23 24 25 26 27 28 29 30 31 32 33 34 35 36 37 38 39 40 41 42 43 44 45 46 47 48 49 50
000
ASUS45 KPSR 161610
RWRAZ

ARIZONA REGIONAL HOURLY WEATHER ROUNDUP
NATIONAL WEATHER SERVICE PHOENIX AZ
900 AM MST TUE SEP 16 2014

NOTE: FAIR INDICATES FEW OR NO CLOUDS BELOW 12,000 FEET WITH NO
SIGNIFICANT WEATHER AND/OR OBSTRUCTIONS TO VISIBILITY.

AZZ001>003-036-161700-
NORTHWEST ARIZONA

CITY           SKY/WX    TMP DP  RH WIND       PRES   REMARKS
BULLHEAD CITY  SUNNY     91  68  46 S9        29.90S
KINGMAN        SUNNY     81  59  47 SW9       30.08R
$$

AZZ004>008-015-016-018-161700-
NORTH CENTRAL ARIZONA

CITY           SKY/WX    TMP DP  RH WIND       PRES   REMARKS
GRAND CANYON   SUNNY     71  48  43 CALM      30.32R
PRESCOTT       MOSUNNY   75  56  51 CALM      30.21R
FLAGSTAFF      PTSUNNY   66  51  58 W7        30.34S
PAYSON         CLOUDY    70  55  60 VRB7G13   30.24S
PAGE           SUNNY     79  50  36 VRB5      30.17S
$$

AZZ009>014-017-161700-
NORTHEAST ARIZONA

CITY           SKY/WX    TMP DP  RH WIND       PRES   REMARKS
WINSLOW        PTSUNNY   72  56  57 E10       30.22S
SAINT JOHNS    CLOUDY    72  53  51 SE7       30.26R
SHOW LOW       CLOUDY    64  52  63 SW10      30.32S
$$

AZZ023-161700-
GREATER PHOENIX AREA

CITY           SKY/WX    TMP DP  RH WIND       PRES   REMARKS
PHOENIX        CLOUDY    84  69  60 CALM      29.93S
BUCKEYE          N/A     79  75  89 SE3       29.94S
GLENDALE       PTSUNNY   84  70  61 CALM      29.96R
LUKE AFB       PTSUNNY   84  69  60 E6        29.94R
DEER VALLEY    CLOUDY    85  65  51 SE6       29.96R
SCOTTSDALE     CLOUDY    83  66  56 CALM      29.98R
MESA-FALCON    PTSUNNY   88  61  40 SE9       29.96R
MESA-GATEWAY   PTSUNNY   86  64  48 SE10      29.98S
CHANDLER       PTSUNNY   86  64  48 MISG      29.95S
$$

AZZ027-028-161700-
SOUTHWEST MARICOPA COUNTY AND PINAL COUNTY

CITY           SKY/WX    TMP DP  RH WIND       PRES   REMARKS
CASA GRANDE    CLOUDY    84  64  51 SE12      29.97S
GILA BEND      PTSUNNY   81  73  78 NE5       29.92S
$$

AZZ503-504-507>509-161700-
SOUTHEAST ARIZONA

CITY           SKY/WX    TMP DP  RH WIND       PRES   REMARKS
TUCSON         CLOUDY    75  66  73 E6        30.06S
DAVIS-MONTHAN  CLOUDY    73  65  76 E7        30.04S
RYAN FIELD       N/A     73  70  88 E5        30.05S
NOGALES        CLOUDY    71  64  78 CALM      30.08S
SIERRA VISTA   LGT RAIN  66  64  94 E5        30.18R
DOUGLAS        CLOUDY    71  64  78 E8        30.15S
SAFFORD        LGT RAIN  70  66  87 SE6       30.13S
$$

AZZ020-021-025-026-031-161700-
SOUTHWEST ARIZONA

CITY           SKY/WX    TMP DP  RH WIND       PRES   REMARKS
YUMA           CLOUDY    90  68  48 NE3       29.84S
$$

CAZ031-033-041-043-047-048-061-161700-
SOUTHERN CALIFORNIA

CITY           SKY/WX    TMP DP  RH WIND       PRES   REMARKS
DOWNTOWN L.A.  SUNNY     85  65  51 CALM      29.77S
L.A. AIRPORT   MOSUNNY   81  65  58 CALM      29.78S
SAN DIEGO      MOSUNNY   83  66  56 NW5       29.78R
BURBANK        SUNNY     85  56  37 E3        29.81R
ONTARIO        SUNNY     90  63  40 E3        29.82S
RIVERSIDE      SUNNY     89  61  38 CALM      29.82S
PALM SPRINGS   MOSUNNY   90  71  53 SE10      29.90R
EL CENTRO NAS  MOSUNNY   89  73  59 SE12      29.83R
IMPERIAL       MOSUNNY   88  73  61 E16       29.82R
BLYTHE         SUNNY     90  72  55 CALM      29.86F
NEEDLES        SUNNY     92  66  42 S13       29.90R
$$

NVZ020-UTZ003-161700-
SOUTHERN NEVADA-UTAH

CITY           SKY/WX    TMP DP  RH WIND       PRES   REMARKS
LAS VEGAS      SUNNY     88  46  23 S3        29.92R
SALT LAKE CITY PTSUNNY   77  41  27 E6        30.12R
$$

NMZ009-TXZ055-161700-
NEW MEXICO-WEST TEXAS

CITY           SKY/WX    TMP DP  RH WIND       PRES   REMARKS
ALBUQUERQUE    CLOUDY    68  57  68 CALM      30.32R
EL PASO        CLOUDY    68  65  90 N10       30.21R
$$


........................KEY........................
SKY/WX - SKY CONDITION/WEATHER
TMP    - TEMPERATURE IN FAHRENHEIT
DP     - DEW POINT IN FAHRENHEIT
RH     - RELATIVE HUMIDITY IN PERCENT
WIND   - DIRECTION AND SPEED IN MILES PER HOUR (MPH)
VRB    - VARIABLE WIND DIRECTION
PRES   - MEAN SEA LEVEL PRESSURE IN INCHES OF MERCURY
         F - FALLING PRESSURE   R - RISING PRESSURE
         S - STEADY PRESSURE
VSB    - VISIBILITY IN MILES
HX     - HEAT INDEX IN FAHRENHEIT
WCI    - WIND CHILL INDEX IN FAHRENHEIT
TC     - TEMPERATURE IN CELSIUS WHICH IS ALSO KNOWN AS
         TEMPERATURE IN CENTIGRADE
AFB    - AIR FORCE BASE
         LUKE AFB IS LUKE AIR FORCE BASE
         DAVIS-MONTHAN IS DAVIS-MONTHAN AIR FORCE BASE
NAS    - NAVAL AIR STATION
         EL CENTRO NAS IS EL CENTRO NAVAL AIR STATION
N/A    - NOT AVAILABLE


USA.gov is the U.S. government's official web portal to all federal, state and local government web resources and services.